Regional Weather Roundup
Issued by NWS

Home | Current Version | Previous Version | Graphics & Text | Print | Product List | Glossary On
Versions: 1 2 3 4 5 6 7 8 9 10 11 12 13 14 15 16 17 18 19 20 21 22 23 24 25 26 27 28 29 30 31 32 33 34 35 36 37 38 39 40 41 42 43 44 45 46 47 48 49 50
000
ASUS43 KIND 110859
RWRIN

WEATHER ROUNDUP FOR INDIANA
NATIONAL WEATHER SERVICE INDIANAPOLIS IN
500 AM EDT FRI JUL 11 2014

NOTE: "FAIR" INDICATES FEW OR NO CLOUDS BELOW 12,000 FEET WITH NO
SIGNIFICANT WEATHER AND/OR OBSTRUCTIONS TO VISIBILITY.

* - STATION DOES NOT REPORT WEATHER SUCH AS PRECIPITATION OR FOG.

+ - STATION NOT QUALITY CONTROLLED BY THE NATIONAL WEATHER SERVICE.
    USE DATA WITH CAUTION...ESPECIALLY DEWPOINT AND RELATIVE
    HUMIDITY OBSERVATIONS.

INZ001>003-010>013-019-020-111000-
NORTHWEST INDIANA

CITY           SKY/WX    TMP DP  RH WIND       PRES   REMARKS
RENSSELAER +   PTCLDY    52  52 100 CALM      30.20R
VALPARAISO     PTCLDY    53  50  89 NE5       30.21R

$$

LMZ046-743>745-111000-
SOUTHERN LAKE MICHIGAN

STATION/POSITION TIME  TEMP WIND        PRES
                       AIR  DIR/SP/G
                 (UTC) (F)  (DEG/KT/KT) (MB)
MICHIGAN CITY    0800   62  110/  6/  7   N/A

$$

INZ004-005-014>016-021>024-111000-
NORTH CENTRAL INDIANA

CITY           SKY/WX    TMP DP  RH WIND       PRES   REMARKS
GOSHEN         CLEAR     55  53  93 CALM      30.21R
SOUTH BEND     CLEAR     56  52  86 CALM      30.21S

$$

INZ006>009-017-018-025>027-111000-
NORTHEAST INDIANA

CITY           SKY/WX    TMP DP  RH WIND       PRES   REMARKS
ANGOLA *+      CLEAR     55  55 100 CALM      30.21S
FORT WAYNE     PTCLDY    56  53  90 CALM      30.20R

$$

INZ028-029-035-036-043>045-051>053-111000-
WEST CENTRAL INDIANA

CITY           SKY/WX    TMP DP  RH WIND       PRES   REMARKS
GREENCASTLE +  PTCLDY    55  54  94 CALM      30.18F
LAFAYETTE      PTCLDY    55  55 100 CALM      30.19S
TERRE HAUTE    PTCLDY    57  55  93 N3        30.17S

$$

INZ030>032-037>040-046>048-054>057-064-065-111000-
CENTRAL INDIANA

CITY           SKY/WX    TMP DP  RH WIND       PRES   REMARKS
INDIANAPOLIS   PTCLDY    64  53  67 VRB3      30.17S
-EAGLE CREEK   CLEAR     60  53  77 CALM      30.18S
KOKOMO *+      CLEAR     52  48  87 CALM      30.20S
MT COMFORT *+  CLEAR     54 N/A N/A CALM      30.19S
SHELBYVILLE    CLEAR     57  53  86 CALM      30.17S

$$

INZ033-034-041-042-049-050-058-059-111000-
EAST CENTRAL INDIANA

CITY           SKY/WX    TMP DP  RH WIND       PRES   REMARKS
MUNCIE         CLEAR     56  52  86 CALM      30.19S

$$

INZ060-061-067>069-081>083-085>088-111000-
SOUTHWEST INDIANA

CITY           SKY/WX    TMP DP  RH WIND       PRES   REMARKS
EVANSVILLE     CLEAR     67  60  78 NE3       30.14S
HUNTINGBURG *+ CLEAR     61  57  88 NE6       30.15S

$$

INZ062-063-066-070>080-084-089>092-111000-
SOUTH CENTRAL AND SOUTHEAST INDIANA

CITY           SKY/WX    TMP DP  RH WIND       PRES   REMARKS
BLOOMINGTON    CLEAR     56  53  90 CALM      30.18R

$$




USA.gov is the U.S. government's official web portal to all federal, state and local government web resources and services.